Stations météo

réclame
Mon MeteoGroup
Bordeaux/Merignac, France (7510): Température de l'air & dewpoint: 12.10.2017 15:00:00 - 18.10.2017 15:00:00 (CEST)Bordeaux/Merignac, France (7510): Température de l'air 5cm: 12.10.2017 15:00:00 - 18.10.2017 15:00:00 (CEST)Bordeaux/Merignac, France (7510): Température de l'air -20cm & Température de l'air -100cm: 12.10.2017 15:00:00 - 18.10.2017 15:00:00 (CEST)Bordeaux/Merignac, France (7510): Vitesse du vent & gusts: 12.10.2017 15:00:00 - 18.10.2017 15:00:00 (CEST)Bordeaux/Merignac, France (7510): Direction du vent: 12.10.2017 15:00:00 - 18.10.2017 15:00:00 (CEST)Bordeaux/Merignac, France (7510): reduced air pressure: 12.10.2017 15:00:00 - 18.10.2017 15:00:00 (CEST)Bordeaux/Merignac, France (7510): visibility: 12.10.2017 15:00:00 - 18.10.2017 15:00:00 (CEST)Bordeaux/Merignac, France (7510): Ensoleillement: 12.10.2017 15:00:00 - 18.10.2017 15:00:00 (CEST)Bordeaux/Merignac, France (7510): Quantités de précipitations: 12.10.2017 15:00:00 - 18.10.2017 15:00:00 (CEST)
Date & Time tt [°C] td [°C] tt 5cm [°C] tt -20cm [°C] tt -100cm [°C] ff [km/h] ff [knt] fx [km/h] fx [knt] dd ppp [hPa] vv [km] sd [min] rr [mm]
18.10.2017 15:00:00 - - - - - - - - - - - - - -
18.10.2017 14:00:00 20,7 15,9 22,1 18,7 18,4 5 3 10 6 N 1010,0 10 14 0,0
18.10.2017 13:00:00 21,4 17,0 20,2 18,5 18,4 6 3 14 7 SW 1011,1 19 29 0,0
18.10.2017 12:00:00 18,6 16,2 17,8 18,4 18,4 8 4 20 11 SSE 1011,4 10 2 0,0
18.10.2017 11:00:00 17,6 15,8 16,4 18,4 18,4 16 8 25 14 SE 1011,8 13 14 0,0
18.10.2017 10:00:00 16,9 15,6 15,4 18,5 18,4 16 9 25 14 SE 1011,8 8 16 0,0
18.10.2017 09:00:00 16,2 15,4 15,5 18,6 18,4 11 6 19 11 SE 1012,0 4,4 0 0,0
18.10.2017 08:00:00 16,3 15,7 15,6 18,6 18,4 12 7 18 10 ESE 1011,9 6 0 0,4
18.10.2017 07:00:00 16,5 15,5 15,8 18,7 18,4 12 6 22 12 SE 1012,5 11 0 0,2
18.10.2017 06:00:00 16,9 15,4 16,1 18,8 18,4 13 7 26 14 SE 1012,9 10 0 0,0
18.10.2017 05:00:00 17,3 15,1 16,5 18,9 18,4 20 11 28 15 SE 1012,8 17 0 0,0
18.10.2017 04:00:00 17,7 15,3 17,4 19,0 18,3 17 9 29 16 SE 1013,2 20 0 0,0
18.10.2017 03:00:00 18,1 15,2 17,1 19,0 18,3 19 10 29 16 SE 1013,6 20 0 0,0
18.10.2017 02:00:00 18,4 15,1 17,5 19,1 18,3 18 10 24 13 SE 1014,0 24 0 0,0
18.10.2017 01:00:00 18,9 14,8 17,8 19,2 18,3 14 8 23 12 SE 1014,5 26 0 0,0
18.10.2017 00:00:00 19,5 14,5 19,0 19,3 18,3 13 7 21 11 SSE 1015,0 31 0 0,0
17.10.2017 23:00:00 20,2 14,1 19,8 19,5 18,3 13 7 24 13 S 1014,9 10 0 0,0
17.10.2017 22:00:00 20,5 13,9 19,6 19,6 18,3 17 9 25 13 SE 1014,6 36 0 0,0
17.10.2017 21:00:00 21,2 13,9 20,2 19,8 18,3 16 9 27 15 SE 1014,5 10 0 0,0
17.10.2017 20:00:00 22,1 14,7 20,0 19,9 18,3 13 7 19 10 SE 1014,4 36 0 0,0
17.10.2017 19:00:00 23,3 15,4 21,8 19,9 18,3 11 6 18 10 ESE 1014,1 17 16 0,0
17.10.2017 18:00:00 24,6 16,1 24,8 19,8 18,3 15 8 24 13 ESE 1014,3 10 54 0,0
17.10.2017 17:00:00 25,3 16,2 27,2 19,6 18,3 15 8 24 13 ESE 1014,9 28 60 0,0
17.10.2017 16:00:00 25,0 16,2 28,4 19,2 18,3 16 9 28 15 SE 1015,2 10 60 0,0
17.10.2017 15:00:00 24,2 16,5 27,0 18,8 18,3 17 9 30 16 SE 1015,9 20 60 0,0
17.10.2017 14:00:00 23,1 16,2 24,7 18,3 18,3 16 8 27 15 SE 1016,9 16 60 0,0
17.10.2017 13:00:00 21,5 16,0 23,4 18,0 18,3 14 7 27 14 SSE 1017,8 16 60 0,0
17.10.2017 12:00:00 20,0 15,8 20,1 17,8 18,3 16 9 32 17 SSE 1018,3 15 60 0,0
17.10.2017 11:00:00 17,8 15,4 17,5 17,8 18,3 22 12 39 21 SE 1018,9 10 40 0,0
17.10.2017 10:00:00 16,4 14,9 15,6 17,8 18,3 13 7 22 12 ESE 1019,5 10 58 0,0
17.10.2017 09:00:00 15,3 14,5 14,1 17,9 18,3 9 5 18 10 SE 1019,6 6 0 0,0
17.10.2017 08:00:00 14,9 14,3 14,0 18,0 18,3 8 4 16 9 ESE 1019,6 8 0 0,2
17.10.2017 07:00:00 14,9 14,3 14,2 18,2 18,3 10 5 21 12 ESE 1019,7 9 0 0,0
17.10.2017 06:00:00 15,1 14,1 14,4 18,3 18,3 15 8 23 12 SE 1020,2 12 0 0,0
17.10.2017 05:00:00 15,4 14,3 14,4 18,4 18,2 16 9 23 12 SE 1020,4 14 0 0,0
17.10.2017 04:00:00 15,5 14,4 14,3 18,6 18,2 13 7 19 10 SE 1021,1 10 0 0,0
17.10.2017 03:00:00 15,7 15,4 11,8 18,8 18,2 9 5 14 7 ESE 1021,7 4,5 0 0,0
17.10.2017 02:00:00 15,7 15,2 13,5 18,9 18,2 4 2 11 6 NE 1022,2 1,3 0 0,0
17.10.2017 01:00:00 15,9 15,3 13,2 19,2 18,2 7 4 9 5 NE 1022,7 0,9 0 0,0
17.10.2017 00:00:00 16,2 15,2 13,6 19,4 18,2 5 3 10 6 NNE 1023,1 0,1 0 0,0
16.10.2017 23:00:00 16,9 16,1 14,6 19,6 18,2 6 4 11 6 N 1023,2 0,5 0 0,0
16.10.2017 22:00:00 17,7 16,6 15,7 19,8 18,2 6 4 10 6 NNW 1022,9 3,8 0 0,0
16.10.2017 21:00:00 18,8 16,4 17,1 20,0 18,2 7 4 16 9 NW 1022,8 12 0 0,0
16.10.2017 20:00:00 20,7 15,7 19,3 20,1 18,2 8 5 14 8 WNW 1022,5 20 0 0,0
16.10.2017 19:00:00 23,8 14,5 21,7 20,2 18,2 9 5 15 8 W 1021,8 42 39 0,0
16.10.2017 18:00:00 26,0 13,8 27,3 20,1 18,2 10 5 29 16 W 1021,4 47 60 0,0
16.10.2017 17:00:00 26,8 13,2 28,9 19,9 18,2 21 11 29 16 W 1021,4 10 60 0,0
16.10.2017 16:00:00 28,2 12,9 31,2 19,5 18,2 18 10 35 19 WSW 1021,3 44 60 0,0
16.10.2017 15:00:00 28,1 13,6 31,3 19,0 18,1 19 11 37 20 WSW 1021,6 20 60 0,0
16.10.2017 14:00:00 27,1 16,1 29,0 18,6 18,2 8 5 20 11 S 1021,8 20 60 0,0
16.10.2017 13:00:00 24,8 16,8 25,4 18,2 18,1 9 5 24 13 S 1022,0 20 60 0,0
16.10.2017 12:00:00 21,9 16,4 22,3 18,0 18,1 17 9 26 14 SE 1021,6 19 60 0,0
16.10.2017 11:00:00 19,9 16,1 19,5 17,9 18,1 16 9 32 18 SE 1021,7 14 60 0,0
16.10.2017 10:00:00 18,0 15,8 16,8 17,9 18,1 16 9 27 14 SE 1021,3 10 58 0,0
16.10.2017 09:00:00 16,6 15,6 15,9 18,0 18,1 19 11 28 15 SE 1020,5 11 0 0,0
16.10.2017 08:00:00 16,4 15,4 15,9 18,1 18,1 15 8 32 17 SE 1020,4 12 0 0,0
16.10.2017 07:00:00 16,6 15,8 16,0 18,2 18,1 20 11 31 17 SE 1020,2 12 0 0,0
16.10.2017 06:00:00 16,7 15,7 16,2 18,3 18,1 19 10 29 16 SE 1020,2 14 0 0,0
16.10.2017 05:00:00 16,9 15,6 16,3 18,4 18,1 18 10 25 14 SE 1020,4 10 0 0,0
16.10.2017 04:00:00 17,4 15,7 16,7 18,6 18,1 14 8 21 12 SE 1020,9 19 0 0,0
16.10.2017 03:00:00 18,2 15,6 17,5 18,7 18,0 14 7 32 18 SSE 1021,2 20 0 0,0
16.10.2017 02:00:00 18,9 15,8 18,1 18,8 18,1 22 12 34 18 SE 1021,2 10 0 0,0
16.10.2017 01:00:00 19,5 15,6 18,8 18,9 18,1 22 12 33 18 SE 1021,5 20 0 0,0
16.10.2017 00:00:00 20,2 15,2 19,4 19,1 18,1 24 13 32 18 SE 1021,5 10 0 0,0
15.10.2017 23:00:00 21,0 14,9 20,2 19,2 18,0 21 12 30 16 SE 1021,4 48 0 0,0
15.10.2017 22:00:00 21,9 15,3 20,7 19,4 18,0 14 7 28 15 SE 1021,6 47 0 0,0
15.10.2017 21:00:00 22,8 15,6 21,4 19,5 18,0 18 10 26 14 SE 1021,3 10 0 0,0
15.10.2017 20:00:00 23,8 16,3 22,5 19,6 18,0 15 8 20 11 ESE 1021,4 42 0 0,0
15.10.2017 19:00:00 25,1 17,0 24,1 19,6 18,0 15 8 25 14 ESE 1021,0 10 13 0,0
15.10.2017 18:00:00 26,5 17,0 27,4 19,4 18,0 16 9 24 13 ESE 1020,9 10 60 0,0
15.10.2017 17:00:00 27,1 17,6 29,5 19,1 18,1 15 8 21 12 ESE 1020,9 10 60 0,0
15.10.2017 16:00:00 27,1 17,8 29,4 18,7 18,0 11 6 27 15 SE 1021,3 38 60 0,0
15.10.2017 15:00:00 26,2 16,7 29,3 18,2 18,0 16 9 27 14 SSE 1021,5 38 60 0,0
15.10.2017 14:00:00 25,4 16,8 27,3 17,8 18,0 14 8 23 12 SE 1022,4 20 60 0,0
15.10.2017 13:00:00 23,6 16,6 24,8 17,4 18,0 16 9 23 12 SSE 1022,9 20 60 0,0
15.10.2017 12:00:00 21,7 16,9 21,9 17,1 18,0 16 9 23 12 SE 1023,1 20 60 0,0
15.10.2017 11:00:00 19,0 15,9 18,7 17,0 18,0 16 9 26 14 SE 1023,3 20 60 0,0
15.10.2017 10:00:00 17,0 15,2 16,0 17,0 18,0 14 8 24 13 SE 1023,0 14 60 0,0
15.10.2017 09:00:00 15,3 14,8 14,2 17,1 18,0 15 8 21 11 SE 1022,7 8 14 0,0
15.10.2017 08:00:00 14,9 14,4 14,2 17,2 18,0 13 7 21 12 SE 1022,6 7 0 0,0
15.10.2017 07:00:00 15,2 14,6 14,5 17,3 18,0 13 7 22 12 SE 1022,6 9 0 0,0
15.10.2017 06:00:00 15,3 14,7 14,5 17,4 18,0 13 7 23 13 SE 1022,4 10 0 0,0
15.10.2017 05:00:00 15,3 14,5 14,6 17,5 18,0 14 8 20 11 SE 1022,4 14 0 0,0
15.10.2017 04:00:00 15,5 14,4 14,9 17,6 18,0 13 7 20 11 SE 1022,6 16 0 0,0
15.10.2017 03:00:00 15,9 14,1 15,2 17,7 18,0 11 6 24 13 SE 1022,9 20 0 0,0
15.10.2017 02:00:00 16,7 14,2 15,9 17,9 18,0 16 9 31 17 SSE 1022,8 10 0 0,0
15.10.2017 01:00:00 17,6 14,1 16,8 18,0 18,0 13 7 25 13 SSE 1022,8 10 0 0,0
15.10.2017 00:00:00 18,8 14,1 17,4 18,2 18,0 16 9 25 13 SE 1022,7 34 0 0,0
14.10.2017 23:00:00 18,8 14,3 16,7 18,4 18,0 13 7 19 10 SE 1022,7 10 0 0,0
14.10.2017 22:00:00 19,0 14,3 16,8 18,5 18,0 9 5 14 8 SE 1022,7 21 0 0,0
14.10.2017 21:00:00 20,1 13,8 18,1 18,7 18,0 10 6 16 9 SE 1022,6 28 0 0,0
14.10.2017 20:00:00 21,4 13,8 19,1 18,8 18,0 11 6 16 9 SE 1022,3 32 0 0,0
14.10.2017 19:00:00 23,1 13,6 22,1 18,8 18,0 11 6 19 10 ESE 1022,2 40 54 0,0
14.10.2017 18:00:00 24,8 13,7 26,8 18,5 18,0 10 5 16 9 ESE 1022,3 34 60 0,0
14.10.2017 17:00:00 24,6 14,7 27,3 18,1 18,0 11 6 20 11 ESE 1022,6 32 60 0,0
14.10.2017 16:00:00 23,1 14,4 26,5 17,7 18,0 13 7 20 11 ESE 1022,9 10 60 0,0
14.10.2017 15:00:00 21,4 15,0 24,2 17,2 18,1 10 5 16 9 E 1023,5 19 60 0,0
14.10.2017 14:00:00 19,1 15,2 19,8 16,9 18,1 10 5 17 9 ESE 1024,4 14 53 0,0
14.10.2017 13:00:00 16,9 15,1 17,1 16,6 18,1 9 5 19 10 SE 1025,1 10 9 0,0
14.10.2017 12:00:00 15,8 15,5 16,2 16,4 18,0 13 7 19 10 SSE 1025,5 7 0 0,2
14.10.2017 11:00:00 15,4 15,4 15,3 16,3 18,1 10 6 17 9 SSE 1025,7 1,0 0 0,0
14.10.2017 10:00:00 14,8 14,8 13,4 16,3 18,1 9 5 14 7 SSE 1025,2 0,2 0 0,0
14.10.2017 09:00:00 13,3 13,3 12,3 16,3 18,1 8 4 10 5 SSE 1025,0 0,2 0 0,0
14.10.2017 08:00:00 12,3 12,3 11,3 16,3 18,1 6 4 9 5 SE 1024,5 0,1 0 0,0
14.10.2017 07:00:00 11,9 11,7 9,2 16,5 18,1 8 4 8 5 SE 1024,4 5 0 0,2
14.10.2017 06:00:00 12,0 11,8 8,6 16,6 18,0 2 1 7 4 - 1024,4 6 0 0,0
14.10.2017 05:00:00 11,5 11,2 8,2 16,8 18,1 4 2 7 4 SSE 1024,4 8 0 0,0
14.10.2017 04:00:00 11,8 11,3 8,5 17,0 18,1 2 1 6 3 ESE 1024,3 7 0 0,0
14.10.2017 03:00:00 11,9 11,3 8,2 17,2 18,0 4 2 6 3 SSW 1024,7 7 0 0,0
14.10.2017 02:00:00 12,9 12,3 8,5 17,4 18,1 0 0 4 2 N 1024,6 0,2 0 0,0
14.10.2017 01:00:00 13,4 12,8 9,2 17,6 18,1 5 3 8 4 NE 1024,9 0,5 0 0,0
14.10.2017 00:00:00 13,6 12,7 10,2 17,8 18,1 4 2 6 3 NE 1024,9 2,9 0 0,0
13.10.2017 23:00:00 14,3 12,8 10,5 18,0 18,1 2 1 7 4 WNW 1024,7 2,2 0 0,0
13.10.2017 22:00:00 15,1 13,1 10,8 18,3 18,1 0 0 13 7 N 1024,5 13 0 0,0
13.10.2017 21:00:00 16,6 13,9 11,5 18,4 18,1 0 0 21 11 N 1024,1 10 0 0,0
13.10.2017 20:00:00 19,6 14,4 13,7 18,6 18,1 8 4 15 8 ENE 1024,0 10 0 0,0
13.10.2017 19:00:00 22,4 14,8 21,3 18,6 18,1 8 5 18 10 NE 1023,6 30 33 0,0
13.10.2017 18:00:00 24,4 14,8 26,2 18,4 18,1 9 5 22 12 NE 1023,6 10 60 0,0
13.10.2017 17:00:00 24,8 14,9 28,7 18,0 18,1 8 4 17 9 ENE 1023,7 20 60 0,0
13.10.2017 16:00:00 24,4 14,8 28,9 17,6 18,1 6 3 14 7 NE 1023,9 29 60 0,0
13.10.2017 15:00:00 23,9 14,6 25,2 17,1 18,1 5 3 13 7 ENE 1024,2 28 60 0,0
13.10.2017 14:00:00 21,6 14,0 22,0 16,7 18,1 5 3 15 8 - 1024,5 10 46 0,0
13.10.2017 13:00:00 20,4 13,1 21,4 16,3 18,1 9 5 22 12 E 1025,0 10 47 0,0
13.10.2017 12:00:00 19,1 13,1 18,0 16,0 18,1 10 5 16 9 ESE 1025,2 20 57 0,0
13.10.2017 11:00:00 16,3 13,0 14,7 15,9 18,2 10 5 16 9 E 1025,2 20 43 0,0
13.10.2017 10:00:00 14,9 12,4 12,8 15,9 18,2 11 6 16 9 E 1025,0 20 60 0,0
13.10.2017 09:00:00 12,0 11,5 9,7 16,0 18,2 6 4 11 6 ENE 1024,7 9 26 0,0
13.10.2017 08:00:00 11,2 10,9 6,7 16,1 18,2 5 3 11 6 - 1024,7 9 0 0,0
13.10.2017 07:00:00 10,9 10,6 6,1 16,3 18,1 5 3 8 5 NE 1024,7 8 0 0,0
13.10.2017 06:00:00 11,3 10,8 8,7 16,4 18,1 3 2 8 5 ESE 1024,7 1,3 0 0,0
13.10.2017 05:00:00 11,9 11,6 7,4 16,6 18,2 5 3 10 5 ENE 1024,7 5 0 0,0
13.10.2017 04:00:00 11,9 11,6 7,3 16,9 18,2 5 3 8 4 NE 1024,8 0,3 0 0,2
13.10.2017 03:00:00 12,1 11,6 8,2 17,0 18,1 7 4 10 6 NE 1025,0 0,6 0 0,0
13.10.2017 02:00:00 12,7 12,2 9,4 17,2 18,2 8 4 18 10 NE 1025,0 0,7 0 0,0
13.10.2017 01:00:00 13,6 12,8 9,1 17,4 18,1 6 3 9 5 ENE 1025,3 10 0 0,0
13.10.2017 00:00:00 14,1 13,1 10,2 17,6 18,2 5 3 15 8 ENE 1025,4 10 0 0,0
12.10.2017 23:00:00 14,8 13,7 11,5 17,9 18,2 8 4 12 7 ENE 1025,8 12 0 0,0
12.10.2017 22:00:00 15,5 14,0 13,5 18,0 18,2 6 3 14 8 ENE 1025,6 11 0 0,0
12.10.2017 21:00:00 16,3 14,3 14,1 18,2 18,2 7 4 16 9 NE 1025,7 17 0 0,0
12.10.2017 20:00:00 17,4 14,5 15,8 18,3 18,2 9 5 29 16 NE 1025,6 10 1 0,0
12.10.2017 19:00:00 19,1 14,6 19,2 18,4 18,2 11 6 20 11 NNE 1025,5 10 60 0,0
12.10.2017 18:00:00 20,4 14,1 22,1 18,2 18,2 10 5 23 12 E 1025,4 46 60 0,0
12.10.2017 17:00:00 19,8 14,4 22,2 17,9 18,2 13 7 26 14 NE 1025,7 34 60 0,0
12.10.2017 16:00:00 19,4 14,2 23,4 17,6 18,2 11 6 21 11 E 1026,1 30 60 0,0
12.10.2017 15:00:00 18,9 14,6 20,6 17,2 18,2 10 5 22 12 E 1026,5 38 50 0,0

tt = Température de l'air
td = dewpoint
tt 5cm = Température de l'air 5cm
tt -20cm = Température de l'air -20cm
tt -100cm = Température de l'air -100cm
ff = Vitesse du vent
fx = gusts
dd = Direction du vent
ppp = reduced air pressure
vv = visibility
sd = Ensoleillement
rr = Quantités de précipitations

stations d'obs. à proximité